, AK

(GMT )
Anchorage

Weather History for PANC - March, 2012

Change the Weather History Date:

Sunday, March 11, 2012

  Actual Average Record
Temperature  
Mean Temperature 16 °F 25 °F  
Max Temperature 22 °F 33 °F 51 °F (1984)
Min Temperature 10 °F 18 °F -13 °F (1966)
Degree Days  
Heating Degree Days 49    
Month to date heating degree days 533  
Since 1 July heating degree days 8291  
Cooling Degree Days 0    
Month to date cooling degree days 0  
Year to date cooling degree days 0  
Moisture  
Dew Point -2 °F    
Average Humidity 51    
Maximum Humidity 55    
Minimum Humidity 46    
Precipitation  
Precipitation 0.00 in 0.02 in 0.35 in (1971)
Month to date precipitation 0.48 0.23  
Year to date precipitation 3.57 1.68  
Snow  
Snow 0.00 in 0.30 in 5.70 in (1971)
Month to date snowfall 6.9 3.8  
Since 1 July snowfall 126.8 64.1  
Snow Depth 34.00 in    
Sea Level Pressure  
Sea Level Pressure 29.38 in    
Wind  
Wind Speed 7 mph (NNE)    
Max Wind Speed 10 mph    
Max Gust Speed 16 mph    
Visibility 10 miles    
Events      
T = Trace of Precipitation, MM = Missing Value Source: NWS Daily Summary

Daily Weather History Graph

Daily Weather History Graph

Search for Another Location

Airport or City:

Trip Planner

Search our weather history database for the weather conditions in past years. The results will help you decide how hot, cold, wet, or windy it might be!

Date:

Astronomy

Mar. 11, 2012 Rise Set
Actual Time 8:27 AM AKDT 7:53 PM AKDT
Civil Twilight 7:44 AM AKDT 8:36 PM AKDT
Nautical Twilight 6:54 AM AKDT 9:27 PM AKDT
Astronomical Twilight 6:00 AM AKDT 10:20 PM AKDT
Moon 12:35 AM AKST 8:44 AM AKDT
Length of Visible Light 12h 51m
Length of Day
11h 26m
Waning Gibbous, 84% of the Moon is Illuminated
Mar 11
Waning Gibbous
Mar 14
Last Quarter
Mar 22
New
Mar 30
First Quarter
Apr 6
Full

Hourly Weather History & Observations

Time (AKDT) Temp. Windchill Dew Point Humidity Pressure Visibility Wind Dir Wind Speed Gust Speed Precip Events Conditions
12:53 AM 14.0 °F 2.9 °F -4.0 °F 45% 29.30 in 10.0 mi North 8.1 mph - N/A   Mostly Cloudy
1:53 AM 14.0 °F 2.0 °F -4.0 °F 45% 29.30 in 10.0 mi NNE 9.2 mph - N/A   Mostly Cloudy
3:53 AM 14.0 °F 3.9 °F -4.0 °F 45% 29.30 in 10.0 mi NNE 6.9 mph - N/A   Mostly Cloudy
4:53 AM 12.9 °F 5.2 °F -4.0 °F 47% 29.30 in 10.0 mi North 4.6 mph - N/A   Mostly Cloudy
5:53 AM 12.9 °F 3.8 °F -5.1 °F 45% 29.30 in 10.0 mi North 5.8 mph - N/A   Overcast
6:53 AM 12.9 °F 0.7 °F -4.0 °F 47% 29.31 in 10.0 mi North 9.2 mph - N/A   Overcast
7:53 AM 12.9 °F 2.6 °F -2.9 °F 49% 29.31 in 10.0 mi NNE 6.9 mph - N/A   Mostly Cloudy
8:53 AM 12.0 °F -1.3 °F -5.1 °F 46% 29.32 in 10.0 mi North 10.4 mph - N/A   Mostly Cloudy
9:53 AM 12.9 °F 3.8 °F -4.0 °F 47% 29.34 in 10.0 mi NNE 5.8 mph - N/A   Mostly Cloudy
10:53 AM 12.9 °F 1.6 °F -5.1 °F 45% 29.35 in 10.0 mi NNE 8.1 mph 16.1 mph N/A   Scattered Clouds
11:53 AM 15.1 °F 4.2 °F -2.9 °F 45% 29.36 in 10.0 mi NNE 8.1 mph - N/A   Scattered Clouds
12:53 PM 14.0 °F 6.5 °F -0.0 °F 54% 29.37 in 10.0 mi ENE 4.6 mph - N/A   Scattered Clouds
1:53 PM 16.0 °F - -0.9 °F 47% 29.37 in 10.0 mi Calm Calm - N/A   Mostly Cloudy
2:53 PM 18.0 °F - -0.9 °F 44% 29.38 in 10.0 mi Calm Calm - N/A   Mostly Cloudy
3:53 PM 19.0 °F - 1.0 °F 46% 29.39 in 10.0 mi Calm Calm - N/A   Mostly Cloudy
4:53 PM 19.9 °F - 1.9 °F 46% 29.40 in 10.0 mi Calm Calm - N/A   Mostly Cloudy
5:53 PM 21.0 °F - 1.0 °F 42% 29.41 in 10.0 mi Calm Calm - N/A   Mostly Cloudy
6:53 PM 19.9 °F 13.4 °F 1.0 °F 44% 29.42 in 10.0 mi North 4.6 mph - N/A   Mostly Cloudy
7:53 PM 19.0 °F 8.2 °F 1.0 °F 46% 29.44 in 10.0 mi North 9.2 mph - N/A   Scattered Clouds
8:53 PM 15.1 °F 7.7 °F -2.0 °F 47% 29.46 in 10.0 mi North 4.6 mph - N/A   Scattered Clouds
9:53 PM 15.1 °F 3.3 °F -2.0 °F 47% 29.47 in 10.0 mi NNE 9.2 mph - N/A   Scattered Clouds
10:53 PM 14.0 °F 3.9 °F -2.9 °F 47% 29.49 in 10.0 mi NNE 6.9 mph - N/A   Clear
11:53 PM 12.0 °F 1.5 °F -4.0 °F 49% 29.50 in 10.0 mi North 6.9 mph - N/A   Clear
12:53 AM 10.9 °F 1.4 °F -5.1 °F 49% 29.51 in 10.0 mi North 5.8 mph - N/A   Clear